Tracking 35274 objects as of 10-Sep-2026
HD Live streaming from Space Station
objects crossing your sky now

STARLINK-30544

Track STARLINK-30544 now!
10-day predictions
STARLINK-30544 is classified as:


NORAD ID: 58055
Int'l Code: 2023-158E
Launch date: October 13, 2023
Source: United States (US)
Launch site: AIR FORCE EASTERN TEST RANGE (AFETR)
Your satellite tracking list
Your tracking list is empty




NASA's NSSDC Master Catalog

Two Line Element Set (TLE):
1 58055U 23158E   26252.22922975  .00000658  00000-0  33455-4 0  9990
2 58055  43.0046  70.1990 0001845 267.9135  92.1505 15.27579559161644
Source of the keplerian elements: AFSPC